Location: Newark
(53.3333°N, 83.7500°E)
Time: 03:08:47
(UTC+00:00)

SR - Pass Details

Date: 20 November 2019
Orbit: 573 x 882 km, 66.7° (Epoch: 08 December)

Event Time Altitude Azimuth Distance (km) Brightness Sun altitude
Rises 13:09:38 0° 294° (WNW) 3,394 ? -24.4°
Reaches altitude 10° 13:12:39 10° 309° (NW) 2,497 ? -24.9°
Maximum altitude 13:17:07 22° 359° (N) 1,825 ? -25.6°
Enters shadow 13:18:16 21° 15° (NNE) 1,884 ? -25.7°
